FW3788 Weather Reports


Display with metric or nautical units.
time (UTC)temp
F
wind
direction
speed
MPH
gust
MPH
rain 1hr
in
rain 24hr
in
rain mn
in
humidity
%
barometer
mb
20260508050023 57 185 0.0 0.0 0.00 0.00 0.00 64 1014.6
20260508045518 57 185 0.0 0.0 0.00 0.00 0.00 64 1014.6
20260508045019 57 185 0.0 0.0 0.00 0.00 0.00 63 1014.6
20260508044519 58 185 0.0 0.0 0.00 0.00 0.00 60 1014.5
20260508044019 59 185 0.0 0.0 0.00 0.00 0.00 60 1014.5
20260508043520 59 185 0.0 0.0 0.00 0.00 0.00 60 1014.4
20260508043032 59 185 0.0 0.0 0.00 0.00 0.00 59 1014.3
20260508042519 60 185 0.0 0.0 0.00 0.00 0.00 59 1014.3
20260508042020 60 185 0.0 0.0 0.00 0.00 0.00 60 1014.4
20260508041519 60 185 0.0 0.0 0.00 0.00 0.00 58 1014.2
20260508041019 61 185 0.0 0.0 0.00 0.00 0.00 57 1014.2
20260508040518 61 185 0.0 0.0 0.00 0.00 0.00 56 1014.1
20260508040023 62 185 0.0 0.0 0.00 0.00 0.00 54 1014.1
20260508035519 63 185 0.0 0.0 0.00 0.00 0.00 54 1014.1
20260508035019 63 185 0.0 0.0 0.00 0.00 0.00 55 1014.0
20260508034521 63 185 0.0 0.0 0.00 0.00 0.00 56 1014.0
20260508034021 63 191 0.0 0.0 0.00 0.00 0.00 56 1013.9
20260508033518 64 244 0.0 0.0 0.00 0.00 0.00 53 1013.8
20260508033019 65 245 0.0 0.0 0.00 0.00 0.00 51 1013.8
20260508032519 66 245 0.0 0.0 0.00 0.00 0.00 48 1013.7
20260508032020 67 245 0.0 0.0 0.00 0.00 0.00 47 1013.6
20260508031522 67 245 0.0 0.0 0.00 0.00 0.00 47 1013.6
20260508031019 68 305 0.0 0.0 0.00 0.00 0.00 45 1013.6
20260508030520 68 305 0.0 0.0 0.00 0.00 0.00 45 1013.6
20260508030023 69 305 0.0 0.0 0.00 0.00 0.00 46 1013.6
20260508025518 70 305 0.0 0.0 0.00 0.00 0.00 41 1013.5
20260508025019 70 305 0.0 0.0 0.00 0.00 0.00 40 1013.4
20260508024519 71 305 0.0 6.0 0.00 0.00 0.00 39 1013.4
20260508024019 71 305 0.0 6.0 0.00 0.00 0.00 39 1013.4
20260508023519 72 316 0.0 5.0 0.00 0.00 0.00 39 1013.3
20260508023020 72 303 0.0 6.0 0.00 0.00 0.00 39 1013.2
20260508022521 73 314 0.0 7.0 0.00 0.00 0.00 38 1013.2
20260508022019 73 301 2.0 7.0 0.00 0.00 0.00 37 1013.2
20260508021520 74 308 1.0 6.0 0.00 0.00 0.00 37 1013.1
20260508021121 74 341 0.0 6.0 0.00 0.00 0.00 37 1013.1
20260508020521 75 342 3.0 7.0 0.00 0.00 0.00 36 1013.1
20260508020019 75 320 3.0 7.0 0.00 0.00 0.00 37 1013.1
20260508015519 76 343 3.0 7.0 0.00 0.00 0.00 36 1013.1
20260508015019 76 301 1.0 10.0 0.00 0.00 0.00 36 1013.1
20260508014520 76 329 4.0 10.0 0.00 0.00 0.00 36 1013.0
20260508014020 77 320 3.0 9.0 0.00 0.00 0.00 36 1013.0
20260508013519 77 329 5.0 9.0 0.00 0.00 0.00 35 1012.9
20260508013019 78 324 4.0 9.0 0.00 0.00 0.00 35 1012.8
20260508012519 79 341 0.0 7.0 0.00 0.00 0.00 34 1012.9
20260508012019 79 339 1.0 7.0 0.00 0.00 0.00 35 1012.9
20260508011520 79 334 1.0 7.0 0.00 0.00 0.00 34 1012.8
20260508011019 79 295 0.0 8.0 0.00 0.00 0.00 34 1012.8
20260508010519 79 295 2.0 8.0 0.00 0.00 0.00 34 1012.8
20260508010025 80 319 1.0 10.0 0.00 0.00 0.00 33 1012.8
20260508005524 80 342 4.0 10.0 0.00 0.00 0.00 34 1012.8
20260508005121 80 316 1.0 9.0 0.00 0.00 0.00 33 1012.8
20260508004519 80 329 1.0 8.0 0.00 0.00 0.00 32 1012.8
20260508004021 81 283 2.0 8.0 0.00 0.00 0.00 30 1012.8
20260508003519 81 262 3.0 10.0 0.00 0.00 0.00 27 1012.8
20260508003020 81 312 1.0 10.0 0.00 0.00 0.00 27 1012.8
20260508002520 82 324 2.0 8.0 0.00 0.00 0.00 28 1012.8
20260508002019 82 292 2.0 10.0 0.00 0.00 0.00 27 1012.8
20260508001519 82 328 2.0 10.0 0.00 0.00 0.00 26 1012.8
20260508001021 82 26 1.0 9.0 0.00 0.00 0.00 29 1012.8
20260508000523 82 44 1.0 9.0 0.00 0.00 0.00 28 1012.9
20260508000019 82 289 3.0 9.0 0.00 0.00 0.00 25 1012.9
20260507235520 82 311 1.0 10.0 0.00 0.00 0.00 30 1012.8
20260507235019 82 350 3.0 9.0 0.00 0.00 0.00 30 1012.9
20260507234523 82 20 0.0 9.0 0.00 0.00 0.00 30 1012.9
20260507234020 82 295 1.0 9.0 0.00 0.00 0.00 30 1013.0
20260507233520 82 325 1.0 6.0 0.00 0.00 0.00 30 1013.0
20260507233021 82 342 1.0 8.0 0.00 0.00 0.00 28 1012.9
20260507232520 82 322 0.0 10.0 0.00 0.00 0.00 31 1013.0
20260507232019 82 34 4.0 11.0 0.00 0.00 0.00 32 1013.0
20260507231619 83 37 0.0 7.0 0.00 0.00 0.00 31 1013.0
20260507224018 82 70 0.0 9.0 0.00 0.00 0.00 33 1013.4
20260507223518 82 340 1.0 9.0 0.00 0.00 0.00 32 1013.4
20260507223018 82 314 1.0 14.0 0.00 0.00 0.00 33 1013.5
20260507222519 82 308 3.0 12.0 0.00 0.00 0.00 32 1013.5
20260507222018 82 45 3.0 10.0 0.00 0.00 0.00 31 1013.5
20260507221518 83 339 3.0 10.0 0.00 0.00 0.00 30 1013.5
20260507221018 83 350 0.0 10.0 0.00 0.00 0.00 30 1013.6
20260507220517 83 301 0.0 7.0 0.00 0.00 0.00 30 1013.6
20260507220018 83 308 1.0 7.0 0.00 0.00 0.00 30 1013.7
20260507215518 82 345 1.0 11.0 0.00 0.00 0.00 31 1013.7
20260507215020 83 60 4.0 11.0 0.00 0.00 0.00 30 1013.9
20260507214518 83 347 0.0 7.0 0.00 0.00 0.00 30 1013.9
20260507214018 83 66 0.0 7.0 0.00 0.00 0.00 27 1014.0
20260507213620 83 217 0.0 8.0 0.00 0.00 0.00 28 1014.0
20260507213020 83 347 4.0 8.0 0.00 0.00 0.00 30 1014.0
20260507212519 84 152 1.0 6.0 0.00 0.00 0.00 30 1014.1
20260507212018 82 193 0.0 9.0 0.00 0.00 0.00 30 1014.2
20260507211518 82 193 0.0 9.0 0.00 0.00 0.00 30 1014.2
20260507211017 82 344 1.0 8.0 0.00 0.00 0.00 31 1014.3
20260507210520 81 101 1.0 10.0 0.00 0.00 0.00 30 1014.4
20260507210020 81 310 2.0 10.0 0.00 0.00 0.00 29 1014.4
20260507205518 81 304 0.0 8.0 0.00 0.00 0.00 30 1014.3
20260507205018 81 350 2.0 8.0 0.00 0.00 0.00 31 1014.5
20260507204519 81 33 1.0 9.0 0.00 0.00 0.00 31 1014.5
20260507204018 81 312 6.0 9.0 0.00 0.00 0.00 30 1014.6
20260507203518 81 45 3.0 9.0 0.00 0.00 0.00 30 1014.6
20260507203018 81 158 1.0 8.0 0.00 0.00 0.00 31 1014.6
20260507202519 80 24 0.0 9.0 0.00 0.00 0.00 32 1014.6
20260507202018 80 350 5.0 9.0 0.00 0.00 0.00 32 1014.6
20260507201518 80 24 4.0 9.0 0.00 0.00 0.00 30 1014.8
20260507201121 81 312 3.0 7.0 0.00 0.00 0.00 30 1014.8
20260507200518 80 72 0.0 8.0 0.00 0.00 0.00 30 1014.9
20260507200019 79 42 2.0 9.0 0.00 0.00 0.00 32 1014.9
20260507195518 79 45 3.0 9.0 0.00 0.00 0.00 32 1015.0
20260507195018 79 315 1.0 8.0 0.00 0.00 0.00 33 1015.0
20260507194522 79 313 4.0 8.0 0.00 0.00 0.00 32 1015.1
20260507194018 79 359 1.0 8.0 0.00 0.00 0.00 32 1015.2
20260507193518 79 289 0.0 5.0 0.00 0.00 0.00 34 1015.2
20260507193025 78 295 0.0 4.0 0.00 0.00 0.00 33 1015.3
20260507192517 77 354 0.0 8.0 0.00 0.00 0.00 35 1015.3
20260507192017 77 359 0.0 8.0 0.00 0.00 0.00 36 1015.4
20260507191518 78 56 2.0 7.0 0.00 0.00 0.00 34 1015.5
20260507191017 78 301 1.0 5.0 0.00 0.00 0.00 36 1015.6
20260507190518 77 359 0.0 9.0 0.00 0.00 0.00 36 1015.7
20260507190018 77 336 3.0 6.0 0.00 0.00 0.00 36 1015.6
20260507185618 76 308 1.0 6.0 0.00 0.00 0.00 36 1015.6
20260507185019 76 331 2.0 5.0 0.00 0.00 0.00 38 1015.8
20260507184518 76 280 0.0 6.0 0.00 0.00 0.00 39 1015.8
20260507184019 76 297 2.0 8.0 0.00 0.00 0.00 38 1015.8
20260507183518 76 320 1.0 8.0 0.00 0.00 0.00 40 1015.9
20260507183033 75 292 1.0 7.0 0.00 0.00 0.00 40 1016.0
20260507182519 75 350 1.0 7.0 0.00 0.00 0.00 40 1016.0
20260507182018 75 313 3.0 7.0 0.00 0.00 0.00 40 1016.0
20260507181518 75 320 0.0 6.0 0.00 0.00 0.00 41 1016.0
20260507181018 75 332 3.0 6.0 0.00 0.00 0.00 42 1016.2
20260507180518 74 308 3.0 7.0 0.00 0.00 0.00 41 1016.2
20260507180020 74 39 0.0 4.0 0.00 0.00 0.00 43 1016.2
20260507175520 73 50 0.0 5.0 0.00 0.00 0.00 45 1016.2
20260507175018 73 305 1.0 6.0 0.00 0.00 0.00 45 1016.2
20260507174520 73 294 2.0 6.0 0.00 0.00 0.00 45 1016.2
20260507174018 73 316 1.0 5.0 0.00 0.00 0.00 44 1016.2
20260507173521 72 322 0.0 4.0 0.00 0.00 0.00 45 1016.3
20260507173018 72 316 0.0 5.0 0.00 0.00 0.00 46 1016.3
20260507172519 71 312 1.0 6.0 0.00 0.00 0.00 48 1016.2
20260507172017 71 104 0.0 6.0 0.00 0.00 0.00 47 1016.3
20260507171527 71 187 0.0 5.0 0.00 0.00 0.00 48 1016.3
20260507171019 72 319 2.0 5.0 0.00 0.00 0.00 47 1016.3
20260507170518 72 341 0.0 2.0 0.00 0.00 0.00 49 1016.4
20260507170019 71 341 0.0 2.0 0.00 0.00 0.00 47 1016.3
20260507165518 71 341 0.0 7.0 0.00 0.00 0.00 50 1016.4
20260507165018 70 341 0.0 7.0 0.00 0.00 0.00 51 1016.5
20260507164518 70 287 1.0 5.0 0.00 0.00 0.00 51 1016.5
20260507164019 70 284 0.0 5.0 0.00 0.00 0.00 55 1016.6
20260507163518 70 293 0.0 0.0 0.00 0.00 0.00 54 1016.6
20260507163018 69 14 0.0 0.0 0.00 0.00 0.00 55 1016.6
20260507162518 68 22 0.0 0.0 0.00 0.00 0.00 57 1016.7
20260507162020 67 22 0.0 0.0 0.00 0.00 0.00 58 1016.7
20260507161519 67 22 0.0 0.0 0.00 0.00 0.00 58 1016.7
20260507161148 67 29 0.0 0.0 0.00 0.00 0.00 58 1016.6
20260507080018 50 36 0.0 0.0 0.00 0.00 0.00 84 1017.6
20260507075521 50 36 0.0 0.0 0.00 0.00 0.00 84 1017.5
20260507075018 50 36 0.0 0.0 0.00 0.00 0.00 84 1017.5
20260507074518 51 36 0.0 0.0 0.00 0.00 0.00 83 1017.4
20260507074021 51 36 0.0 0.0 0.00 0.00 0.00 83 1017.4
20260507073518 51 36 0.0 0.0 0.00 0.00 0.00 83 1017.5
20260507073119 51 36 0.0 0.0 0.00 0.00 0.00 83 1017.5
20260507072518 51 36 0.0 0.0 0.00 0.00 0.00 83 1017.5
20260507072018 51 36 0.0 0.0 0.00 0.00 0.00 83 1017.5
20260507071523 51 36 0.0 0.0 0.00 0.00 0.00 83 1017.5
20260507071118 51 36 0.0 0.0 0.00 0.00 0.00 83 1017.6
20260507070518 51 36 0.0 0.0 0.00 0.00 0.00 82 1017.5
20260507070018 51 36 0.0 0.0 0.00 0.00 0.00 82 1017.6
20260507065518 51 36 0.0 0.0 0.00 0.00 0.00 81 1017.7
20260507065019 51 36 0.0 0.0 0.00 0.00 0.00 80 1017.6
20260507064531 52 36 0.0 0.0 0.00 0.00 0.00 80 1017.6
20260507064019 52 36 0.0 0.0 0.00 0.00 0.00 81 1017.7
20260507063517 52 36 0.0 0.0 0.00 0.00 0.00 81 1017.7
20260507063020 51 36 0.0 0.0 0.00 0.00 0.00 80 1017.7
20260507062525 52 36 0.0 0.0 0.00 0.00 0.00 80 1017.6
20260507062018 52 36 0.0 0.0 0.00 0.00 0.00 78 1017.7
20260507061519 52 36 0.0 0.0 0.00 0.00 0.00 79 1017.7
20260507061017 52 36 0.0 0.0 0.00 0.00 0.00 78 1017.7
20260507060518 52 36 0.0 0.0 0.00 0.00 0.00 78 1017.7
20260507060018 52 36 0.0 0.0 0.00 0.00 0.00 78 1017.7
20260507055519 52 36 0.0 0.0 0.00 0.00 0.00 78 1017.7
20260507055021 52 36 0.0 0.0 0.00 0.00 0.00 77 1017.7
20260507054518 53 36 0.0 0.0 0.00 0.00 0.00 77 1017.6
20260507054018 53 36 0.0 0.0 0.00 0.00 0.00 77 1017.6
20260507053519 53 36 0.0 0.0 0.00 0.00 0.00 76 1017.7
20260507053018 53 36 0.0 0.0 0.00 0.00 0.00 76 1017.7
20260507052518 53 36 0.0 0.0 0.00 0.00 0.00 75 1017.7
20260507052018 53 36 0.0 0.0 0.00 0.00 0.00 75 1017.7
20260507051519 54 36 0.0 0.0 0.00 0.00 0.00 74 1017.6
20260507051018 54 36 0.0 0.0 0.00 0.00 0.00 73 1017.7
20260507050518 55 36 0.0 0.0 0.00 0.00 0.00 73 1017.6